Flag for Germany Weather past 2 weeks in Olpe, North Rhine-Westphalia, Germany

Now
45 °F

Scattered clouds.


Feels Like: 38 °F
Forecast: 32 / 60 °F
Wind: 14 mph from Northwest

Location: Hessen


UV Index: 3 (Moderate)

Visibility: N/A


Pressure: 29.89 "Hg

Humidity: 61%

Dew point: 32 °F

Location of OlpeLocation

Historic Weather in Olpe

°F

Olpe temperature yesterday

Maximum temperature yesterday: 55 °F (at 5:20 PM)
Minimum temperature yesterday: 36 °F (at 6:20 AM)
Average temperature yesterday: 47 °F

Past Weeks' High & Low Weather Summary

 TemperatureHumidityPressure
High66 °F (Apr 3, 4:20 PM)100% (Apr 5, 7:50 AM)30.39 "Hg (Apr 5, 7:50 AM)
Low32 °F (Apr 15, 6:50 AM)40% (Apr 3, 4:20 PM)29.68 "Hg (Apr 3, 4:20 PM)
Average48 °F73%30.06 "Hg
* Reported Apr 3 4:20 PM — Apr 18 4:20 PM, Olpe, Weather by CustomWeather, © 2014

Note: Actual official high and low records may vary slightly from our data, if they occured in-between our weather recording intervals... More about our weather records

Advertising

Historic Weather Conditions — Data for Previous 24 hours

 ConditionsComfort  
Time TempWeatherWind HumidityBarometerVisibility
4:20 PM
Apr 18
45 °FScattered clouds.17 mph61%29.89 "HgN/A
3:50 PM45 °FScattered clouds.15 mph61%29.89 "HgN/A
3:20 PM46 °FPassing clouds.18 mph50%29.89 "HgN/A
2:50 PM48 °FScattered clouds.15 mph50%29.89 "HgN/A
2:20 PM46 °FScattered clouds.15 mph57%29.89 "HgN/A
1:50 PM43 °FScattered clouds.16 mph66%29.89 "HgN/A
1:20 PM45 °FScattered clouds.16 mph61%29.89 "HgN/A
12:50 PM43 °FScattered clouds.15 mph76%29.89 "HgN/A
12:20 PM45 °FScattered clouds.15 mph71%29.89 "HgN/A
11:50 AM41 °FPartly sunny.15 mph81%29.89 "HgN/A
11:20 AM41 °FPartly sunny.14 mph87%29.89 "HgN/A
10:50 AM41 °FPartly sunny.13 mph81%29.86 "HgN/A
10:20 AM39 °FPartly sunny.14 mph93%29.86 "HgN/A
9:50 AM39 °FPartly sunny.13 mph87%29.86 "HgN/A
9:20 AM41 °FScattered clouds.13 mph87%29.86 "HgN/A
8:50 AM39 °FScattered clouds.12 mph93%29.86 "HgN/A
8:20 AM37 °FPartly sunny.10 mph100%29.86 "HgN/A
7:50 AM37 °FPartly sunny.9 mph100%29.86 "HgN/A
9:50 PM
Apr 17
50 °FClear.12 mph47%29.95 "Hg10 mi
9:20 PM50 °FPassing clouds.12 mph47%29.95 "HgN/A
8:50 PM50 °FSunny.10 mph47%29.95 "Hg10 mi
8:20 PM50 °FSunny.7 mph47%29.95 "Hg10 mi
7:50 PM50 °FSunny.7 mph47%29.98 "Hg10 mi
6:50 PM54 °FPassing clouds.9 mph41%30.01 "HgN/A
6:20 PM54 °FPassing clouds.9 mph44%30.01 "HgN/A
5:50 PM54 °FPassing clouds.8 mph41%30.01 "HgN/A
5:20 PM55 °FPassing clouds.9 mph44%30.04 "HgN/A
Weather by CustomWeather, © 2014

See weather overview